Preview of NWS' New Version of Forecast
This preview is not operational and should not be used for support decisions.
Latest weather observations around

Allen County Airport (KK88)

Using English Units (Switch to International System of Units)
Date/ Time (CDT) Wind (mph) Vis. (mi) Weather Sky Cond. Temp (°F) Rel. Humidity Wind Chill (°F) Heat Index (°F) Pressure Precip. (in)
Air Dwpt 6 hour Altimeter (inHg) Sea level (inHg) 1 hr 3 hr 6 hr
Max Min
Jun 24 19:55   10 Clear   74 60     61%   74 29.89        
Jun 24 19:35   10 Clear   76 59     57%   76 29.89        
Jun 24 19:15   10 Clear   77 58     53%   76 29.89        
Jun 24 18:55   10 Clear CLR 77 57     50%   77 29.89        
Jun 24 18:35   10 Clear CLR 78 60     53%   78 29.89        
Jun 24 18:15   10 Clear CLR 78 58     51%   78 29.89        
Jun 24 17:35   10 Clear   78 60     52%   78 29.9        
Jun 24 17:15   10 Clear   78 58     51%   78 29.9        
Jun 24 16:55   10 Clear   78 58     51%   78 29.9        
Jun 24 16:35   10 Clear CLR 78 58     50%   78 29.9        
Jun 24 16:15   10 Clear   78 58     52%   78 29.91        
Jun 24 15:55   10 Clear   77 59     54%   77 29.91        
Jun 24 15:35   10 Clear   77 58     51%   77          
Jun 24 15:15   10 Clear   76 58     53%   76          
Jun 24 14:55   10 Clear CLR 76 58     54%   76          
Jun 24 14:35   10 Clear CLR 76 59     55%   76 29.92        
Jun 24 14:15   10 Clear   75 59     56%   75          
Jun 24 13:55   10 Clear   75 58     56%   74          
Jun 24 13:35   10 Partly Cloudy SCT043 75 59     57%   75 29.93        
Jun 24 13:15   10 Clear CLR 74 58     58%   74 29.93        
Jun 24 12:55   10 Clear CLR 73 56     56%   73 29.93        
Jun 24 12:35   10 Clear   73 57     59%   72 29.93        
Jun 24 12:15   10 Clear   72 57     58%   72          
Jun 24 11:55   10 Clear   71 56     59%   71          
Jun 24 11:35   10 Clear CLR 71 58     62%   71          
Jun 24 11:15   10 Clear   71 57     62%   70 29.92        
Jun 24 10:55   10 Clear CLR 70 57     63%              
Jun 24 10:35   10 Clear   69 56     63%              
Jun 24 10:15   10 Clear   69 58     67%     29.9        
Jun 24 09:55   10 Clear CLR 68 57     68%     29.89        
Jun 24 09:35   10 Clear CLR 67 58     71%     29.89        
Jun 24 09:15   10 Clear   66 57     73%     29.88        
Jun 24 08:55   10 Clear   65 57     75%              
Jun 24 08:35   10 Clear CLR 65 58     79%     29.87        
Jun 24 08:15   10 Clear   64 58     83%     29.86        
Jun 24 07:55   10 Partly Cloudy SCT070 SCT080 63 58     85%     29.86        
Jun 24 07:35   10 Clear   62 58     87%     29.86        
Jun 24 07:15   10 Clear   62 59     90%     29.85        
Jun 24 06:55   10 Clear   63 62     98%              
Jun 24 06:35   10 Clear   64 63     97%     29.84        
Jun 24 06:15   10 Clear   65 65     99%     29.83        
Jun 24 05:55   10 Clear   65 65     100%     29.81        
Jun 24 05:35   10 Mostly Cloudy BKN037 BKN048 66 66     100%     29.81        
Jun 24 05:15   10 Clear   66 66     100%     29.8        
Jun 24 04:55   10 Clear   66 66     100%     29.79        
Jun 24 04:35   10 Clear   67 67     100%     29.79        
Jun 24 04:15   10 Cloudy OVC006 67 67     100%     29.79        
Jun 24 03:55   10 Clear   67 67     100%              
Jun 24 03:35   7 Clear   67 67     100%     29.78        
Jun 24 03:15   7 Clear   67 67     100%     29.79        
Jun 24 02:55   7 Clear   66 66     100%     29.79        
Jun 24 02:35   10 Mostly Cloudy SCT006 SCT037 BKN080 66 66     100%     29.8        
Jun 24 02:15   10 Clear   66 66     100%     29.79        
Jun 24 01:55   10 Clear   66 66     100%     29.8        
Jun 24 01:35   10 Clear   66 66     100%     29.81        
Jun 24 01:15   7 Clear   66 66     100%     29.82        
Jun 24 00:55   7 Clear   66 66     100%     29.81        
Jun 24 00:35   7 Clear   66 66     100%     29.82        
Jun 24 00:15   7 Clear   66 66     100%     29.83        
Jun 23 23:55   7 Clear   66 66     100%     29.82        
Jun 23 23:35   7 Clear   66 66     100%     29.81        
Jun 23 23:15   7 Clear   66 66     100%     29.81        
Jun 23 22:55   7 Clear   66 66     100%              
Jun 23 22:35   4 Clear CLR 66 66     100%     29.8        
Jun 23 22:15   4 Clear   66 66     100%     29.79        
Jun 23 21:55   5 Clear   67 67     100%     29.79        
Jun 23 21:35   10 Clear   67 67     100%     29.79        
Jun 23 21:15   10 Clear   68 67     99%     29.79        
Jun 23 20:55   10 Clear   68 67     98%     29.77        
Jun 23 20:35   10 Clear   68 67     97%     29.78        
Jun 23 20:15   10 Clear   69 67     95%     29.78        
Jun 23 19:55   10 Clear   69 68     95%     29.79        
Jun 23 19:35   10 Clear CLR 70 68     93%     29.79        
Jun 23 19:15   10 Clear   70 67     90%   71 29.78        
Jun 23 18:55   7 Clear CLR 71 67     88%   72 29.77        
Jun 23 18:35   10 Clear   71 67     87%   72 29.76        
Jun 23 18:15   10 Clear   72 66     83%   72 29.76        
Jun 23 17:55   10 Clear   72 66     82%   72 29.76        
Jun 23 17:35   10 Mostly Cloudy BKN033 72 65     81%   72 29.78        
Jun 23 17:15   10 Clear   72 65     80%   72 29.78        
Jun 23 16:55   10 Clear   72 66     80%   73 29.79        
Jun 23 16:35   10 Clear   72 66     81%   73 29.79        
Jun 23 16:15   10 Clear   72 65     80%   72 29.81        
Jun 23 15:55   10 Clear   71 65     81%   72 29.81        
Jun 23 15:35   10 Clear   71 65     82%   72 29.81        
Jun 23 15:15   10 Clear   71 66     83%   72 29.81        
Jun 23 14:55   10 Mostly Cloudy BKN016 BKN021 71 66     85%   71 29.81        
Jun 23 14:35   10 Partly Cloudy SCT014 70 66     87%     29.81        
Jun 23 14:15   10 Clear   69 66     90%     29.79        
Jun 23 13:55   10 Clear   67 65     94%     29.78        
Jun 23 13:35   10 Clear   66 65     95%     29.78        
Jun 23 13:15   10 Clear   66 65     96%     29.77        
Jun 23 12:55   10 Clear   66 65     97%              
Jun 23 12:35   10 Clear   65 65     98%     29.78        
Jun 23 12:15   10 Clear   65 65     100%     29.79        
Jun 23 11:55   10 Cloudy OVC014 64 64     100%              
Jun 23 11:35   10 Clear   64 64     100%     29.81        
Jun 23 11:15   10 Clear   64 64     100%              
Jun 23 10:55   10 Clear   63 63     100%     29.8        
Jun 23 10:35   10 Partly Cloudy SCT110 63 63     100%     29.81        
Jun 23 10:15   10 Clear   63 63     100%     29.82        
Jun 23 09:55   10 Partly Cloudy SCT120 63 63     100%     29.81        
Jun 23 09:35   10 Partly Cloudy SCT120 63 63     100%     29.86        
Jun 23 09:15   10 Clear CLR 63 63     100%              
Jun 23 08:55   10 Clear   63 63     100%              
Jun 23 08:35   10 Partly Cloudy SCT060 SCT070 SCT090 63 63     100%     29.82   0    
Jun 23 08:15   10 Clear   63 63     100%     29.78        
Jun 23 07:55   7 Clear   63 63     100%     29.81        
Jun 23 07:35   1.25 Clear   63 63     100%     29.89        
Jun 23 07:15   10 Clear   65 65     100%              
Jun 23 06:55   10 Clear   65 65     100%     29.79        
Jun 23 06:35   5 Cloudy OVC008 65 65     100%     29.81   0    
Jun 23 06:15   10 Clear   65 65     100%     29.83        
Jun 23 05:55   10 Clear   65 65     100%     29.82        
Jun 23 05:35   10 Clear   65 65     100%     29.82        
Jun 23 05:15   10 Clear   65 65     100%     29.82        
Jun 23 04:55   10 Clear   65 65     100%     29.84        
Jun 23 04:35   10 Clear   64 64     100%     29.84        
Jun 23 04:15   10 Cloudy BKN007 BKN043 OVC070 64 64     100%     29.85        
Jun 23 03:55   7 Cloudy OVC007 64 64     100%     29.85   0    
Jun 23 03:35   10 Clear   65 65     100%     29.86        
Jun 23 03:15   10 Clear   65 65     100%     29.88        
Jun 23 02:55   10 Clear   65 65     100%     29.89        
Jun 23 02:35   10 Clear   65 65     100%     29.9        
Jun 23 02:15   10 Clear   65 65     100%     29.9        
Jun 23 01:55   10 Clear   66 66     100%     29.92        
Jun 23 01:35   10 Clear   66 66     100%     29.93        
Jun 23 01:15   1 Clear   66 66     100%     29.93        
Jun 23 00:55   3 Clear   66 66     100%              
Jun 23 00:35   10 Clear   66 66     100%              
Jun 23 00:15   2.5 Cloudy SCT004 BKN019 OVC028 67 67     100%     29.98   0    
Jun 22 23:55   2 Clear   67 67     99%              
Jun 22 23:35   2.5 Clear   67 67     98%              
Jun 22 23:15   2.5 Clear   68 67     95%     29.94        
Jun 22 22:55   10 Clear   70 67     89%              
Jun 22 22:35   10 Clear   76 67     73%   77          
Jun 22 22:15   10 Clear   78 72     80%   80 29.86        
Jun 22 21:55   10 Clear CLR 80 71     75%   83          
Jun 22 21:35   10 Clear   81 73     76%   86          
Jun 22 21:15   10 Clear   81 75     83%   87 29.79        
Jun 22 20:55   10 Clear   81 75     83%   87 29.8        
Jun 22 20:35   10 Clear   81 75     81%   88 29.81        
Jun 22 20:15   10 Clear   81 75     81%   88 29.8        
Jun 22 19:55   10 Clear   82 75     78%   89 29.8        
Jun 22 19:35   10 Clear   83 75     77%   91 29.79        
Jun 22 19:15   10 Clear   84 75     74%   92 29.79        
Jun 22 18:55   10 Clear   84 75     74%   92 29.79        
Jun 22 18:35   10 Clear CLR 84 75     74%   93 29.79        
Jun 22 18:15   10 Clear   84 76     79%   93 29.79        
Jun 22 17:55   10 Clear   83 76     80%   92 29.82        
Jun 22 17:35   10 Clear   83 76     80%   92 29.83        
Jun 22 17:15   10 Clear   84 76     79%   93 29.84        
Jun 22 16:55   10 Clear   83 76     79%   92 29.85        
Jun 22 16:35   10 Clear   83 76     79%   91 29.86        
Jun 22 16:15   10 Clear   82 76     80%   89 29.86        
Jun 22 15:55   10 Cloudy SCT025 BKN037 OVC044 82 75     81%   88 29.88        
Jun 22 15:35   10 Clear   82 75     79%   89 29.88        
Jun 22 15:15   10 Clear   83 75     77%   91 29.88        
Jun 22 14:55   10 Cloudy SCT035 BKN043 OVC048 82 74     77%   89 29.88        
Jun 22 14:35   10 Cloudy SCT026 SCT041 OVC050 84 75     74%   91 29.88        
Jun 22 14:15   10 Cloudy SCT026 OVC047 84 75     74%   93 29.88        
Jun 22 13:55   10 Clear   86 75     70%   95 29.88        
Jun 22 13:35   10 Clear   86 75     69%   96 29.88        
Jun 22 13:15   10 Clear   85 76     73%   95 29.88        
Jun 22 12:55   10 Clear   85 75     72%   94          
Jun 22 12:35   10 Mostly Cloudy BKN023 BKN031 85 75     74%   93 29.88        
Jun 22 12:15   10 Clear   85 76     73%   94 29.88        
Jun 22 11:55   10 Clear   84 76     76%   93 29.87        
Jun 22 11:35   10 Clear   83 76     77%   92 29.88        
Jun 22 11:15   10 Clear   82 75     78%   89 29.88        
Jun 22 10:55   10 Clear CLR 81 75     80%   88 29.87        
Jun 22 10:35   10 Clear   81 73     77%   87 29.88        
Jun 22 10:15   10 Clear   80 71     74%   84 29.88        
Jun 22 09:55   10 Clear CLR 80 69     69%   83 29.89   0    
Jun 22 09:35   10 Clear   78 69     73%   79 29.89        
Jun 22 09:15   10 Clear   77 68     75%   78 29.88        
Jun 22 08:55   10 Clear   74 68     82%   75 29.86        
Jun 22 08:35   10 Clear   72 67     84%   73 29.86        
Jun 22 08:15   10 Clear   72 67     85%   73 29.86        
Jun 22 07:55   10 Clear CLR 70 67     91%     29.87        
Jun 22 07:35   10 Clear   68 66     92%     29.87        
Jun 22 07:15   10 Clear   67 66     94%     29.85        
Jun 22 06:55   10 Clear   68 65     92%     29.84        
Jun 22 06:35   10 Clear   68 64     87%     29.88        
Jun 22 06:15   5 Clear   68 64     88%              
Jun 22 05:55   10 Mostly Cloudy SCT028 SCT040 BKN050 77 75     93%   79          
Jun 22 05:35   10 Clear   78 75     91%   79 29.85        
Jun 22 05:15   10 Partly Cloudy SCT050 77 75     91%   79 29.83        
Jun 22 04:55   10 Clear   77 74     91%   79 29.82        
Jun 22 04:35   10 Partly Cloudy SCT032 SCT037 SCT043 77 74     91%   79 29.83        
Jun 22 04:15   10 Clear   78 74     89%   80          
Jun 22 03:55   10 Clear   78 74     89%   80          
Jun 22 03:35   10 Clear   78 74     88%   80 29.8        
Jun 22 03:15   10 Clear   78 74     87%   80 29.79        
Jun 22 02:55   10 Clear   79 74     85%   82 29.79        
Jun 22 02:35   10 Clear CLR 79 74     85%   82 29.8        
Jun 22 02:15   10 Clear   79 74     84%   83 29.8        
Jun 22 01:55   10 Clear   80 74     82%   84 29.79        
Jun 22 01:35   10 Clear CLR 80 74     83%   84 29.79        
Jun 22 01:15   10 Clear   80 74     83%   84 29.78        
Jun 22 00:55   10 Clear   80 74     83%   84          
Jun 22 00:35   10 Clear   80 74     83%   84 29.78        
Jun 22 00:15   10 Clear   80 74     83%   84 29.78        
Jun 21 23:55   10 Clear   81 74     81%   86 29.77        
Jun 21 23:35   10 Clear   81 74     81%   86 29.78        
Jun 21 23:15   10 Clear   81 74     80%   86 29.77        
Jun 21 22:55   10 Clear   81 74     80%   86          
Jun 21 22:35   10 Clear   81 74     78%   87 29.76        
Jun 21 22:15   10 Clear CLR 82 74     76%   88 29.75        
Jun 21 21:55   10 Clear   82 74     76%   88          
Jun 21 21:35   10 Clear CLR 83 74     74%   89 29.73        
May 15 11:15 W 8 10 Clear   72 63     72%   73 30.01        
May 15 05:35 Calm 10 Clear   61 60     97%     29.91        
Notice The following observation data may not be complete
May 14 16:15   3 Clear     58      %     29.83        
May 14 13:35 SSW 7 10 Clear   84 68     58%   88 29.92        
May 14 06:15 SSE 8 10 Clear   70 64     81%     29.92        
May 14 01:55 Calm 10 Clear   69 63     80%     29.96        
May 13 23:15 Calm 10 Clear   72 63     73%   72 29.98        
May 13 12:15 S 18 10 Clear   84 67     56%   87 29.99        
May 13 09:55 S 15 10 Clear   77 67     72%   78 30        
May 13 01:15 S 12 10 Clear   72 64     76%   72 29.97        
May 12 18:35 S 12 10 Clear   80 66     63%   82 29.9        
May 12 13:15 S 20 10 Clear   81 66     60%   83 29.91        
May 12 05:15 SSE 12 10 Clear   70 61     72%   70 29.84        
May 12 03:15 SSE 9 10 Clear   70 61     74%   70 29.86        
May 11 08:35   10 Clear   71 60     69%   70 29.76